DLH573V HAAB-FMMI

Flight info

Callsign DLH573V
Flight time N/A
Altitude 37000
Route IMKIT3A IMKIT UT129 ALEMU/N0486F380 UN301 MOV UL431 EGPET/N0486F390 UT913 KINAN UA401 TN TN2B
Aircraft A388/J-SADE2E3FGHIJ3J4J5M1RWXY/LB1D1

Departure

Time N/A
Airport Addis Ababa Bole International Airport (HAAB)

Arrival

Time 2026-04-27 13:09
Airport Ivato International Airport (FMMI)
Time Latitude Longitude Altitude Speed Heading
2026-04-27 10:05 3.42072 39.77624 36975 ft 522 kts 167°
2026-04-27 10:06 3.34927 39.78966 36972 ft 522 kts 167°
2026-04-27 10:06 3.27988 39.80270 36971 ft 523 kts 167°
2026-04-27 10:07 3.20835 39.81614 36967 ft 522 kts 167°
2026-04-27 10:07 3.13693 39.82955 36969 ft 522 kts 167°
2026-04-27 10:08 3.06549 39.84296 36968 ft 522 kts 167°
2026-04-27 10:08 2.99406 39.85637 36966 ft 522 kts 167°
2026-04-27 10:09 2.92309 39.86970 36960 ft 522 kts 167°
2026-04-27 10:09 2.85160 39.88312 36958 ft 522 kts 167°
2026-04-27 10:10 2.78010 39.89654 36958 ft 522 kts 167°
2026-04-27 10:10 2.70861 39.90995 36957 ft 522 kts 167°
2026-04-27 10:11 2.63717 39.92336 36955 ft 522 kts 167°
2026-04-27 10:11 2.56574 39.93676 36950 ft 522 kts 167°
2026-04-27 10:12 2.49420 39.94960 36954 ft 523 kts 168°
2026-04-27 10:12 2.42249 39.96228 36948 ft 522 kts 168°
2026-04-27 10:13 2.35094 39.97500 36947 ft 522 kts 168°
2026-04-27 10:13 2.27922 39.98779 36944 ft 524 kts 168°
2026-04-27 10:14 2.20751 40.00058 36936 ft 523 kts 168°
2026-04-27 10:14 2.13571 40.01338 36938 ft 523 kts 168°
2026-04-27 10:15 2.06390 40.02618 36932 ft 524 kts 168°
2026-04-27 10:15 1.99223 40.03896 36929 ft 523 kts 168°
2026-04-27 10:16 1.92058 40.05173 36918 ft 523 kts 168°
2026-04-27 10:16 1.84888 40.06451 36916 ft 524 kts 168°
2026-04-27 10:17 1.77713 40.07673 36909 ft 524 kts 171°
2026-04-27 10:17 1.70426 40.07886 36912 ft 525 kts 182°
2026-04-27 10:18 1.63138 40.07218 36912 ft 526 kts 183°
2026-04-27 10:18 1.55893 40.06570 36917 ft 526 kts 183°
2026-04-27 10:19 1.48598 40.05914 36911 ft 526 kts 183°
2026-04-27 10:19 1.41313 40.05257 36915 ft 525 kts 184°
2026-04-27 10:20 1.34031 40.04599 36911 ft 525 kts 184°
2026-04-27 10:20 1.26746 40.03941 36912 ft 525 kts 184°
2026-04-27 10:21 1.19460 40.03282 36910 ft 525 kts 184°
2026-04-27 10:21 1.12188 40.02625 36905 ft 524 kts 184°
2026-04-27 10:22 1.04918 40.01969 36903 ft 524 kts 184°
2026-04-27 10:22 0.97643 40.01311 36904 ft 524 kts 184°
2026-04-27 10:23 0.90420 40.00663 36900 ft 524 kts 184°
2026-04-27 10:23 0.83145 40.00014 36900 ft 524 kts 184°
2026-04-27 10:24 0.75885 39.99364 36898 ft 525 kts 184°
2026-04-27 10:24 0.68612 39.98714 36898 ft 524 kts 184°
2026-04-27 10:25 0.61341 39.98063 36894 ft 524 kts 184°
2026-04-27 10:25 0.54071 39.97413 36891 ft 525 kts 184°
2026-04-27 10:26 0.46783 39.96761 36890 ft 525 kts 184°
2026-04-27 10:26 0.39503 39.96110 36888 ft 526 kts 184°
2026-04-27 10:27 0.32217 39.95458 36889 ft 526 kts 184°
2026-04-27 10:27 0.24936 39.94806 36890 ft 524 kts 184°
2026-04-27 10:28 0.17670 39.94156 36893 ft 524 kts 184°
2026-04-27 10:28 0.10414 39.93507 36891 ft 523 kts 183°
2026-04-27 10:29 0.03144 39.92857 36889 ft 523 kts 184°
2026-04-27 10:29 -0.04104 39.92208 36896 ft 521 kts 183°
2026-04-27 10:30 -0.11327 39.91563 36889 ft 521 kts 183°
2026-04-27 10:30 -0.18555 39.90916 36888 ft 521 kts 183°
2026-04-27 10:31 -0.25784 39.90270 36892 ft 521 kts 183°
2026-04-27 10:31 -0.33011 39.89623 36895 ft 521 kts 182°
2026-04-27 10:32 -0.40245 39.89129 36898 ft 521 kts 181°
2026-04-27 10:32 -0.47478 39.88686 36896 ft 521 kts 181°
2026-04-27 10:33 -0.54713 39.88221 36903 ft 521 kts 181°
2026-04-27 10:33 -0.61956 39.87746 36895 ft 522 kts 181°
2026-04-27 10:34 -0.69202 39.87271 36894 ft 522 kts 181°
2026-04-27 10:34 -0.76401 39.86799 36891 ft 521 kts 181°
2026-04-27 10:35 -0.83646 39.86324 36893 ft 522 kts 181°
2026-04-27 10:35 -0.90883 39.85849 36891 ft 521 kts 181°
2026-04-27 10:36 -0.98121 39.85375 36892 ft 521 kts 181°
2026-04-27 10:36 -1.05353 39.84901 36893 ft 520 kts 181°
2026-04-27 10:37 -1.12579 39.84427 36900 ft 521 kts 181°
2026-04-27 10:37 -1.19806 39.83953 36898 ft 518 kts 181°
2026-04-27 10:38 -1.27000 39.83481 36901 ft 517 kts 181°
2026-04-27 10:38 -1.34181 39.83010 36893 ft 517 kts 181°
2026-04-27 10:39 -1.41363 39.82540 36902 ft 517 kts 181°
2026-04-27 10:39 -1.48545 39.82069 36897 ft 516 kts 182°
2026-04-27 10:40 -1.55651 39.81602 36901 ft 515 kts 182°
2026-04-27 10:40 -1.62809 39.81133 36899 ft 515 kts 182°
2026-04-27 10:41 -1.68809 39.80739 36901 ft 515 kts 182°
2026-04-27 10:41 -1.75982 39.80269 36900 ft 518 kts 181°
2026-04-27 10:42 -1.83175 39.79787 36893 ft 518 kts 182°
2026-04-27 10:42 -1.90376 39.79280 36894 ft 518 kts 182°
2026-04-27 10:43 -1.97521 39.78779 36892 ft 518 kts 182°
2026-04-27 10:43 -2.04714 39.78278 36893 ft 518 kts 182°
2026-04-27 10:44 -2.11887 39.77779 36902 ft 516 kts 182°
2026-04-27 10:44 -2.19080 39.77278 36902 ft 516 kts 182°
2026-04-27 10:45 -2.26252 39.76779 36898 ft 517 kts 182°
2026-04-27 10:45 -2.33432 39.76279 36901 ft 517 kts 182°
2026-04-27 10:46 -2.40646 39.75777 36900 ft 522 kts 182°
2026-04-27 10:46 -2.47875 39.75273 36908 ft 522 kts 182°
2026-04-27 10:47 -2.55116 39.74768 36901 ft 521 kts 182°
2026-04-27 10:47 -2.62360 39.74264 36903 ft 521 kts 182°
2026-04-27 10:48 -2.69566 39.73731 36897 ft 520 kts 182°
2026-04-27 10:48 -2.76786 39.73182 36900 ft 519 kts 182°
2026-04-27 10:49 -2.84005 39.72638 36904 ft 519 kts 182°
2026-04-27 10:49 -2.91217 39.72096 36904 ft 520 kts 182°
2026-04-27 10:50 -2.98427 39.71555 36905 ft 518 kts 182°
2026-04-27 10:50 -3.05626 39.71014 36904 ft 519 kts 182°
2026-04-27 10:51 -3.12779 39.70477 36907 ft 519 kts 182°
2026-04-27 10:51 -3.20030 39.69932 36911 ft 519 kts 182°
2026-04-27 10:52 -3.27235 39.69391 36914 ft 519 kts 182°
2026-04-27 10:52 -3.34431 39.68850 36915 ft 519 kts 182°
2026-04-27 10:53 -3.45229 39.68038 36914 ft 519 kts 182°
2026-04-27 10:54 -3.52392 39.67500 36920 ft 519 kts 182°
2026-04-27 10:54 -3.59577 39.66960 36930 ft 519 kts 182°
2026-04-27 10:55 -3.66765 39.66419 36926 ft 518 kts 182°
2026-04-27 10:55 -3.73957 39.65878 36925 ft 518 kts 182°
2026-04-27 10:56 -3.81140 39.65338 36919 ft 518 kts 182°
2026-04-27 10:56 -3.88343 39.64796 36917 ft 517 kts 183°
2026-04-27 10:57 -3.95523 39.64167 36913 ft 519 kts 187°
2026-04-27 10:57 -4.02633 39.62837 36911 ft 520 kts 189°
2026-04-27 10:58 -4.09741 39.61504 36910 ft 520 kts 188°
2026-04-27 10:58 -4.16801 39.60181 36923 ft 520 kts 189°
2026-04-27 10:59 -4.23910 39.58844 36931 ft 520 kts 189°
2026-04-27 10:59 -4.31023 39.57506 36937 ft 522 kts 188°
2026-04-27 11:00 -4.41719 39.55493 36925 ft 522 kts 189°
2026-04-27 11:00 -4.48848 39.54151 36926 ft 521 kts 189°
2026-04-27 11:01 -4.55975 39.52810 36922 ft 520 kts 189°
2026-04-27 11:01 -4.63090 39.51469 36922 ft 521 kts 189°
2026-04-27 11:02 -4.70207 39.50162 36908 ft 520 kts 186°
2026-04-27 11:02 -4.77385 39.49482 36917 ft 517 kts 184°
2026-04-27 11:03 -4.84565 39.48831 36920 ft 518 kts 184°
2026-04-27 11:03 -4.91743 39.48178 36923 ft 518 kts 184°
2026-04-27 11:04 -4.98931 39.47528 36916 ft 517 kts 184°
2026-04-27 11:04 -5.06129 39.46877 36918 ft 520 kts 184°
2026-04-27 11:05 -5.13334 39.46224 36918 ft 520 kts 184°
2026-04-27 11:05 -5.20544 39.45572 36912 ft 520 kts 184°
2026-04-27 11:06 -5.27759 39.44919 36918 ft 520 kts 184°
2026-04-27 11:06 -5.34966 39.44266 36910 ft 522 kts 184°
2026-04-27 11:07 -5.42138 39.43616 36918 ft 518 kts 185°
2026-04-27 11:07 -5.49359 39.42962 36902 ft 520 kts 184°
2026-04-27 11:08 -5.56557 39.42309 36910 ft 520 kts 184°
2026-04-27 11:08 -5.63773 39.41656 36913 ft 520 kts 185°
2026-04-27 11:09 -5.70985 39.41001 36917 ft 520 kts 185°
2026-04-27 11:09 -5.78192 39.40348 36915 ft 523 kts 185°
2026-04-27 11:10 -5.85419 39.40213 36916 ft 519 kts 172°
2026-04-27 11:10 -5.92329 39.42308 36908 ft 523 kts 153°
2026-04-27 11:11 -5.98584 39.45996 36917 ft 520 kts 149°
2026-04-27 11:11 -6.04812 39.49720 36911 ft 522 kts 149°
2026-04-27 11:12 -6.11006 39.53427 36918 ft 519 kts 149°
2026-04-27 11:12 -6.17208 39.57145 36919 ft 519 kts 149°
2026-04-27 11:13 -6.23378 39.60845 36921 ft 517 kts 149°
2026-04-27 11:13 -6.29530 39.64600 36693 ft 516 kts 147°
2026-04-27 11:14 -6.32570 39.66543 36944 ft 520 kts 147°
2026-04-27 11:14 -6.35613 39.68493 36911 ft 518 kts 147°
2026-04-27 11:14 -6.41691 39.72365 36916 ft 518 kts 147°
2026-04-27 11:15 -6.47803 39.76227 36917 ft 519 kts 148°
2026-04-27 11:15 -6.53925 39.80032 36917 ft 519 kts 148°
2026-04-27 11:16 -6.60046 39.83842 36911 ft 516 kts 148°
2026-04-27 11:16 -6.66143 39.87645 36913 ft 516 kts 148°
2026-04-27 11:17 -6.72242 39.91451 36905 ft 517 kts 148°
2026-04-27 11:17 -6.78378 39.95272 36910 ft 518 kts 148°
2026-04-27 11:18 -6.84504 39.99082 36906 ft 517 kts 148°
2026-04-27 11:18 -6.90598 40.02874 36907 ft 519 kts 148°
2026-04-27 11:19 -6.96760 40.06711 36907 ft 520 kts 147°
2026-04-27 11:19 -7.02933 40.10555 36911 ft 520 kts 147°
2026-04-27 11:20 -7.09108 40.14402 36907 ft 523 kts 147°
2026-04-27 11:20 -7.15262 40.18238 36906 ft 520 kts 147°
2026-04-27 11:21 -7.21422 40.22078 36905 ft 519 kts 148°
2026-04-27 11:21 -7.27588 40.25922 36906 ft 524 kts 147°
2026-04-27 11:22 -7.33772 40.29780 36907 ft 523 kts 147°
2026-04-27 11:22 -7.38924 40.32996 36908 ft 525 kts 147°
2026-04-27 11:23 -7.45139 40.36875 36900 ft 525 kts 147°
2026-04-27 11:23 -7.51332 40.40742 36899 ft 521 kts 147°
2026-04-27 11:24 -7.57517 40.44605 36901 ft 522 kts 148°
2026-04-27 11:24 -7.63677 40.48455 36904 ft 519 kts 148°
2026-04-27 11:25 -7.69838 40.52305 36903 ft 523 kts 148°
2026-04-27 11:25 -7.76030 40.56176 36899 ft 524 kts 148°
2026-04-27 11:26 -7.82196 40.60034 36900 ft 521 kts 148°
2026-04-27 11:26 -7.88332 40.63974 36898 ft 521 kts 147°
2026-04-27 11:27 -7.94425 40.67975 36896 ft 524 kts 147°
2026-04-27 11:27 -8.00529 40.71963 36896 ft 520 kts 147°
2026-04-27 11:28 -8.06579 40.75908 36897 ft 525 kts 148°
2026-04-27 11:28 -8.12725 40.79914 36895 ft 521 kts 147°
2026-04-27 11:29 -8.18758 40.83850 36893 ft 520 kts 147°
2026-04-27 11:29 -8.24916 40.87726 36893 ft 523 kts 149°
2026-04-27 11:30 -8.31129 40.91541 36887 ft 520 kts 149°
2026-04-27 11:30 -8.37330 40.95375 36893 ft 524 kts 149°
2026-04-27 11:31 -8.43539 40.99227 36888 ft 522 kts 149°
2026-04-27 11:31 -8.49724 41.03068 36892 ft 519 kts 149°
2026-04-27 11:32 -8.55913 41.06912 36885 ft 522 kts 149°
2026-04-27 11:32 -8.62080 41.10745 36890 ft 519 kts 149°
2026-04-27 11:33 -8.68238 41.14574 36893 ft 522 kts 150°
2026-04-27 11:33 -8.74421 41.18417 36884 ft 520 kts 149°
2026-04-27 11:34 -8.80593 41.22258 36892 ft 522 kts 150°
2026-04-27 11:34 -8.86786 41.26112 36889 ft 522 kts 149°
2026-04-27 11:35 -8.92922 41.29932 36885 ft 520 kts 149°
2026-04-27 11:35 -8.99100 41.33780 36891 ft 522 kts 149°
2026-04-27 11:36 -9.05258 41.37617 36888 ft 519 kts 149°
2026-04-27 11:36 -9.11418 41.41457 36886 ft 519 kts 149°
2026-04-27 11:37 -9.17570 41.45294 36880 ft 519 kts 149°
2026-04-27 11:37 -9.23726 41.49134 36886 ft 520 kts 149°
2026-04-27 11:38 -9.29881 41.52976 36883 ft 521 kts 150°
2026-04-27 11:38 -9.36032 41.56816 36885 ft 518 kts 149°
2026-04-27 11:39 -9.42163 41.60647 36889 ft 518 kts 149°
2026-04-27 11:39 -9.48294 41.64478 36889 ft 517 kts 149°
2026-04-27 11:40 -9.54431 41.68315 36885 ft 518 kts 149°
2026-04-27 11:40 -9.60561 41.72148 36883 ft 517 kts 149°
2026-04-27 11:41 -9.66693 41.75986 36889 ft 517 kts 150°
2026-04-27 11:41 -9.72809 41.79814 36885 ft 516 kts 149°
2026-04-27 11:42 -9.78915 41.83638 36886 ft 516 kts 149°
2026-04-27 11:42 -9.85025 41.87467 36888 ft 516 kts 149°
2026-04-27 11:43 -9.91118 41.91286 36881 ft 515 kts 149°
2026-04-27 11:43 -9.97172 41.95083 36884 ft 515 kts 149°
2026-04-27 11:44 -10.03270 41.98908 36885 ft 515 kts 149°
2026-04-27 11:44 -10.09366 42.02734 36886 ft 515 kts 149°
2026-04-27 11:45 -10.14465 42.05937 36883 ft 514 kts 150°
2026-04-27 11:45 -10.21543 42.10383 36888 ft 515 kts 150°
2026-04-27 11:46 -10.27630 42.14209 36885 ft 515 kts 150°
2026-04-27 11:46 -10.33722 42.18039 36887 ft 514 kts 150°
2026-04-27 11:47 -10.39810 42.21869 36883 ft 515 kts 150°
2026-04-27 11:47 -10.45912 42.25709 36884 ft 515 kts 150°
2026-04-27 11:48 -10.52008 42.29548 36884 ft 515 kts 150°
2026-04-27 11:48 -10.58055 42.33358 36884 ft 515 kts 150°
2026-04-27 11:49 -10.64155 42.37202 36884 ft 517 kts 151°
2026-04-27 11:49 -10.70274 42.41060 36880 ft 516 kts 151°
2026-04-27 11:50 -10.76275 42.45117 36886 ft 519 kts 144°
2026-04-27 11:50 -10.82002 42.49591 36867 ft 518 kts 145°
2026-04-27 11:51 -10.87743 42.54036 36866 ft 518 kts 145°
2026-04-27 11:52 -10.96343 42.60708 36868 ft 518 kts 145°
2026-04-27 11:52 -11.02072 42.65159 36888 ft 519 kts 145°
2026-04-27 11:53 -11.07808 42.69617 36889 ft 519 kts 145°
2026-04-27 11:53 -11.13525 42.74064 36892 ft 517 kts 145°
2026-04-27 11:54 -11.19233 42.78505 36890 ft 517 kts 145°
2026-04-27 11:54 -11.24949 42.82954 36874 ft 516 kts 145°
2026-04-27 11:55 -11.30655 42.87398 36867 ft 516 kts 145°
2026-04-27 11:55 -11.36364 42.91848 36867 ft 516 kts 145°
2026-04-27 11:56 -11.42072 42.96298 36871 ft 516 kts 145°
2026-04-27 11:56 -11.47745 43.00723 36892 ft 517 kts 145°
2026-04-27 11:57 -11.53465 43.05187 36891 ft 518 kts 145°
2026-04-27 11:57 -11.59182 43.09651 36876 ft 515 kts 145°
2026-04-27 11:58 -11.64866 43.14093 36879 ft 515 kts 145°
2026-04-27 11:58 -11.70555 43.18540 36879 ft 515 kts 145°
2026-04-27 11:59 -11.76206 43.22960 36883 ft 515 kts 145°
2026-04-27 11:59 -11.81896 43.27411 36889 ft 513 kts 145°
2026-04-27 12:00 -11.87564 43.31850 36902 ft 513 kts 145°
2026-04-27 12:00 -11.93236 43.36294 36883 ft 513 kts 145°
2026-04-27 12:01 -11.98903 43.40736 36877 ft 513 kts 144°
2026-04-27 12:01 -12.04568 43.45178 36882 ft 512 kts 144°
2026-04-27 12:02 -12.10210 43.49606 36880 ft 511 kts 144°
2026-04-27 12:02 -12.15851 43.54034 36878 ft 511 kts 144°
2026-04-27 12:03 -12.21489 43.58463 36878 ft 511 kts 144°
2026-04-27 12:03 -12.27089 43.62864 36880 ft 509 kts 144°
2026-04-27 12:04 -12.32696 43.67274 36876 ft 508 kts 144°
2026-04-27 12:04 -12.38306 43.71688 36875 ft 508 kts 144°
2026-04-27 12:05 -12.43916 43.76104 36876 ft 508 kts 144°
2026-04-27 12:05 -12.48576 43.79775 36874 ft 508 kts 144°
2026-04-27 12:06 -12.54157 43.84174 36878 ft 507 kts 144°
2026-04-27 12:06 -12.59752 43.88584 36876 ft 507 kts 144°
2026-04-27 12:07 -12.65345 43.92998 36883 ft 507 kts 144°
2026-04-27 12:07 -12.70936 43.97411 36878 ft 507 kts 144°
2026-04-27 12:08 -12.76499 44.01806 36876 ft 504 kts 144°
2026-04-27 12:08 -12.82066 44.06204 36877 ft 505 kts 144°
2026-04-27 12:09 -12.87631 44.10605 36876 ft 505 kts 144°
2026-04-27 12:09 -12.93188 44.15002 36876 ft 505 kts 144°
2026-04-27 12:10 -12.98749 44.19406 36872 ft 503 kts 144°
2026-04-27 12:10 -13.04259 44.23769 36874 ft 505 kts 144°
2026-04-27 12:11 -13.09824 44.28180 36872 ft 505 kts 144°
2026-04-27 12:11 -13.15383 44.32589 36875 ft 505 kts 144°
2026-04-27 12:12 -13.20922 44.36985 36868 ft 503 kts 144°
2026-04-27 12:12 -13.26465 44.41386 36870 ft 503 kts 144°
2026-04-27 12:13 -13.32010 44.45790 36869 ft 504 kts 144°
2026-04-27 12:13 -13.37554 44.50196 36874 ft 504 kts 144°
2026-04-27 12:14 -13.43085 44.54599 36871 ft 503 kts 144°
2026-04-27 12:14 -13.48622 44.59008 36870 ft 503 kts 144°
2026-04-27 12:15 -13.54156 44.63416 36868 ft 504 kts 144°
2026-04-27 12:15 -13.59699 44.67833 36870 ft 504 kts 144°
2026-04-27 12:16 -13.65204 44.72224 36872 ft 504 kts 144°
2026-04-27 12:16 -13.70747 44.76647 36870 ft 504 kts 144°
2026-04-27 12:17 -13.76289 44.81073 36870 ft 504 kts 144°
2026-04-27 12:17 -13.81824 44.85496 36870 ft 503 kts 144°
2026-04-27 12:18 -13.87346 44.89910 36867 ft 503 kts 144°
2026-04-27 12:18 -13.92869 44.94329 36868 ft 503 kts 144°
2026-04-27 12:19 -13.98398 44.98755 36864 ft 503 kts 144°
2026-04-27 12:19 -14.03924 45.03181 36868 ft 503 kts 144°
2026-04-27 12:20 -14.09438 45.07601 36864 ft 502 kts 144°
2026-04-27 12:20 -14.14946 45.12019 36865 ft 502 kts 144°
2026-04-27 12:21 -14.20456 45.16440 36864 ft 502 kts 144°
2026-04-27 12:21 -14.25963 45.20863 36862 ft 502 kts 144°
2026-04-27 12:22 -14.31480 45.25296 36863 ft 503 kts 144°
2026-04-27 12:22 -14.36962 45.29704 36862 ft 501 kts 144°
2026-04-27 12:23 -14.42460 45.34128 36862 ft 501 kts 144°
2026-04-27 12:23 -14.47954 45.38551 36864 ft 501 kts 144°
2026-04-27 12:24 -14.53452 45.42979 36859 ft 501 kts 144°
2026-04-27 12:24 -14.58949 45.47412 36859 ft 501 kts 144°
2026-04-27 12:25 -14.64442 45.51842 36861 ft 501 kts 144°
2026-04-27 12:25 -14.69930 45.56273 36859 ft 499 kts 144°
2026-04-27 12:26 -14.75406 45.60696 36861 ft 500 kts 145°
2026-04-27 12:26 -14.80884 45.65123 36851 ft 500 kts 145°
2026-04-27 12:27 -14.86364 45.69555 36858 ft 500 kts 145°
2026-04-27 12:27 -14.91836 45.73984 36855 ft 500 kts 144°
2026-04-27 12:28 -14.97311 45.78418 36860 ft 500 kts 145°
2026-04-27 12:28 -15.02777 45.82848 36851 ft 498 kts 145°
2026-04-27 12:29 -15.08237 45.87275 36856 ft 499 kts 145°
2026-04-27 12:29 -15.13698 45.91706 36857 ft 499 kts 145°
2026-04-27 12:30 -15.19120 45.96110 36855 ft 498 kts 145°
2026-04-27 12:30 -15.24575 46.00542 36856 ft 499 kts 145°
2026-04-27 12:31 -15.30035 46.04982 36859 ft 499 kts 145°
2026-04-27 12:31 -15.35481 46.09414 36855 ft 498 kts 145°
2026-04-27 12:32 -15.40925 46.13846 36854 ft 497 kts 145°
2026-04-27 12:32 -15.46377 46.18288 36857 ft 498 kts 145°
2026-04-27 12:33 -15.51824 46.22729 36852 ft 498 kts 145°
2026-04-27 12:33 -15.57270 46.27173 36858 ft 498 kts 145°
2026-04-27 12:34 -15.62795 46.31495 36864 ft 495 kts 150°
2026-04-27 12:34 -15.68870 46.34746 36863 ft 489 kts 161°
2026-04-27 12:35 -15.75346 46.36829 36857 ft 487 kts 167°
2026-04-27 12:35 -15.81835 46.38697 36856 ft 487 kts 167°
2026-04-27 12:36 -15.88357 46.40580 36844 ft 486 kts 167°
2026-04-27 12:36 -15.94885 46.42458 36846 ft 487 kts 167°
2026-04-27 12:37 -16.01451 46.44346 36848 ft 486 kts 167°
2026-04-27 12:37 -16.07977 46.46224 36852 ft 487 kts 167°
2026-04-27 12:38 -16.14507 46.48104 36850 ft 486 kts 167°
2026-04-27 12:38 -16.21025 46.49983 36826 ft 484 kts 167°
2026-04-27 12:39 -16.27522 46.51856 36824 ft 485 kts 167°
2026-04-27 12:39 -16.34023 46.53731 36832 ft 485 kts 167°
2026-04-27 12:40 -16.40529 46.55610 36813 ft 485 kts 167°
2026-04-27 12:40 -16.46982 46.57474 36833 ft 484 kts 167°
2026-04-27 12:41 -16.53471 46.59351 36832 ft 482 kts 167°
2026-04-27 12:41 -16.59937 46.61222 36825 ft 483 kts 167°
2026-04-27 12:42 -16.66404 46.63095 36838 ft 482 kts 167°
2026-04-27 12:42 -16.72874 46.64970 36829 ft 482 kts 167°
2026-04-27 12:43 -16.79319 46.66839 36837 ft 480 kts 167°
2026-04-27 12:43 -16.85766 46.68710 36842 ft 481 kts 167°
2026-04-27 12:44 -16.92217 46.70583 36841 ft 481 kts 167°
2026-04-27 12:44 -16.98664 46.72457 36852 ft 481 kts 167°
2026-04-27 12:45 -17.04011 46.74012 36861 ft 478 kts 167°
2026-04-27 12:45 -17.10428 46.75880 36869 ft 479 kts 167°
2026-04-27 12:46 -17.16845 46.77748 36869 ft 479 kts 167°
2026-04-27 12:46 -17.23267 46.79620 36876 ft 479 kts 167°
2026-04-27 12:47 -17.29689 46.81493 36905 ft 477 kts 167°
2026-04-27 12:47 -17.36063 46.83353 36899 ft 475 kts 167°
2026-04-27 12:48 -17.42431 46.85212 36908 ft 475 kts 167°
2026-04-27 12:48 -17.48796 46.87072 36908 ft 475 kts 167°
2026-04-27 12:49 -17.55161 46.88934 36922 ft 474 kts 167°
2026-04-27 12:49 -17.61455 46.90778 36397 ft 464 kts 167°
2026-04-27 12:49 -17.64572 46.91690 35468 ft 467 kts 167°
2026-04-27 12:50 -17.67683 46.92601 34427 ft 472 kts 167°
2026-04-27 12:50 -17.70863 46.93532 33210 ft 478 kts 167°
2026-04-27 12:50 -17.74058 46.94472 32384 ft 474 kts 167°
2026-04-27 12:50 -17.77216 46.95402 31684 ft 468 kts 166°
2026-04-27 12:51 -17.80336 46.96320 30978 ft 463 kts 166°
2026-04-27 12:51 -17.83426 46.97229 30317 ft 459 kts 166°
2026-04-27 12:51 -17.86493 46.98130 29529 ft 455 kts 167°
2026-04-27 12:51 -17.89548 46.99026 28565 ft 456 kts 167°
2026-04-27 12:52 -17.92596 46.99921 27692 ft 454 kts 167°
2026-04-27 12:52 -17.95597 47.00803 26917 ft 453 kts 167°
2026-04-27 12:52 -17.98617 47.01691 26416 ft 445 kts 167°
2026-04-27 12:52 -18.01552 47.02556 26013 ft 434 kts 167°
2026-04-27 12:53 -18.07323 47.04251 24920 ft 426 kts 167°
2026-04-27 12:53 -18.10169 47.05087 24387 ft 423 kts 167°
2026-04-27 12:53 -18.13003 47.05921 23847 ft 421 kts 167°
2026-04-27 12:54 -18.15817 47.06749 23247 ft 419 kts 167°
2026-04-27 12:54 -18.18619 47.07575 22710 ft 415 kts 167°
2026-04-27 12:54 -18.21383 47.08390 22174 ft 411 kts 167°
2026-04-27 12:54 -18.24119 47.09197 21634 ft 407 kts 167°
2026-04-27 12:55 -18.26833 47.09997 21100 ft 403 kts 167°
2026-04-27 12:55 -18.29491 47.10904 20569 ft 402 kts 157°
2026-04-27 12:55 -18.31842 47.12420 20040 ft 402 kts 142°
2026-04-27 12:55 -18.33772 47.14549 19514 ft 403 kts 127°
2026-04-27 12:56 -18.35377 47.16951 18960 ft 400 kts 127°
2026-04-27 12:56 -18.36988 47.19328 18435 ft 397 kts 127°
2026-04-27 12:56 -18.38593 47.21679 17848 ft 394 kts 127°
2026-04-27 12:56 -18.40185 47.24009 17322 ft 389 kts 127°
2026-04-27 12:57 -18.41753 47.26309 16803 ft 384 kts 127°
2026-04-27 12:57 -18.43303 47.28583 16280 ft 380 kts 127°
2026-04-27 12:57 -18.44833 47.30827 15769 ft 375 kts 127°
2026-04-27 12:57 -18.46345 47.33046 15260 ft 371 kts 126°
2026-04-27 12:58 -18.47836 47.35239 14761 ft 366 kts 127°
2026-04-27 12:58 -18.49314 47.37410 14267 ft 362 kts 126°
2026-04-27 12:58 -18.50773 47.39557 13772 ft 358 kts 126°
2026-04-27 12:58 -18.52215 47.41678 13265 ft 353 kts 126°
2026-04-27 12:59 -18.53634 47.43767 12789 ft 347 kts 126°
2026-04-27 12:59 -18.55030 47.45822 12316 ft 343 kts 126°
2026-04-27 12:59 -18.56406 47.47850 11868 ft 338 kts 126°
2026-04-27 12:59 -18.57767 47.49852 11394 ft 334 kts 127°
2026-04-27 13:00 -18.59116 47.51836 10957 ft 331 kts 126°
2026-04-27 13:00 -18.60449 47.53804 10515 ft 327 kts 126°
2026-04-27 13:00 -18.61746 47.55713 10369 ft 314 kts 127°
2026-04-27 13:00 -18.62993 47.57547 10253 ft 302 kts 126°
2026-04-27 13:01 -18.64194 47.59321 10072 ft 293 kts 126°
2026-04-27 13:01 -18.65383 47.61073 9912 ft 294 kts 127°
2026-04-27 13:01 -18.66573 47.62828 9712 ft 296 kts 127°
2026-04-27 13:01 -18.67772 47.64596 9418 ft 297 kts 127°
2026-04-27 13:02 -18.68966 47.66352 9131 ft 293 kts 126°
2026-04-27 13:02 -18.70142 47.68091 8840 ft 289 kts 127°
2026-04-27 13:02 -18.71297 47.69803 8531 ft 284 kts 126°
2026-04-27 13:02 -18.72418 47.71464 8278 ft 278 kts 127°
2026-04-27 13:03 -18.73534 47.73110 8194 ft 267 kts 126°
2026-04-27 13:03 -18.74661 47.74587 8059 ft 258 kts 141°
2026-04-27 13:03 -18.76212 47.75420 7964 ft 248 kts 168°
2026-04-27 13:03 -18.77934 47.75432 7596 ft 251 kts 189°
2026-04-27 13:04 -18.79663 47.75111 7416 ft 254 kts 188°
2026-04-27 13:04 -18.81379 47.74620 7186 ft 261 kts 207°
2026-04-27 13:04 -18.82725 47.73360 7059 ft 261 kts 236°
2026-04-27 13:04 -18.83320 47.71607 7046 ft 251 kts 265°
2026-04-27 13:05 -18.83140 47.69824 7036 ft 240 kts 280°
2026-04-27 13:05 -18.82815 47.68132 7050 ft 232 kts 280°
2026-04-27 13:05 -18.82514 47.66482 7043 ft 226 kts 279°
2026-04-27 13:05 -18.82243 47.64860 7045 ft 221 kts 278°
2026-04-27 13:06 -18.81999 47.63311 7045 ft 206 kts 277°
2026-04-27 13:06 -18.81790 47.61937 7012 ft 175 kts 278°
2026-04-27 13:06 -18.81608 47.60726 6657 ft 164 kts 278°
2026-04-27 13:06 -18.81430 47.59528 6149 ft 167 kts 277°
2026-04-27 13:07 -18.81252 47.58341 5795 ft 158 kts 276°
2026-04-27 13:07 -18.81086 47.57213 5406 ft 155 kts 277°
2026-04-27 13:07 -18.80921 47.56094 5195 ft 153 kts 277°
2026-04-27 13:07 -18.80754 47.54968 5086 ft 154 kts 277°
2026-04-27 13:08 -18.80586 47.53859 4962 ft 152 kts 278°
2026-04-27 13:08 -18.80412 47.52761 4799 ft 151 kts 276°
2026-04-27 13:08 -18.80254 47.51670 4584 ft 150 kts 279°
2026-04-27 13:08 -18.80086 47.50585 4353 ft 149 kts 277°
2026-04-27 13:09 -18.80010 47.50034 4267 ft 150 kts 278°
2026-04-27 13:09 -18.79905 47.49288 4167 ft 151 kts 279°
2026-04-27 13:09 -18.79755 47.48307 4145 ft 110 kts 279°
2026-04-27 13:09 -18.79676 47.47774 4144 ft 37 kts 278°
2026-04-27 13:10 -18.79666 47.47630 4144 ft 10 kts 232°
2026-04-27 13:10 -18.79741 47.47593 4142 ft 15 kts 189°
2026-04-27 13:10 -18.79829 47.47630 4145 ft 14 kts 112°
2026-04-27 13:10 -18.79848 47.47743 4143 ft 17 kts 95°
2026-04-27 13:11 -18.79855 47.47797 4141 ft 2 kts 99°
2026-04-27 13:11 -18.79866 47.47836 4144 ft 8 kts 126°
2026-04-27 13:11 -18.79912 47.47853 4143 ft 9 kts 178°
2026-04-27 13:11 -18.79946 47.47850 4142 ft 0 kts 189°